カタログに戻る

H-2A R/B

運用中PO
NORAD 28932·ROCKET BODY·🇯🇵 Japan

打ち上げ Jan 24, 2006 から Tanegashima Space Center

Loading…

次のパス (今後24時間)

TLE

最新Source: Space-Track

元期: Sep 14, 2026, 09:36 UTC

1 28932U 06002B   26257.40030777  .00005186  00000-0  24316-3 0  9991
2 28932  98.2668  61.4403 0048657 319.2403  40.5192 15.19150069123065

AllMySatでH-2A R/Bをリアルタイム追跡

Download on the App Store